Voltar ao catálogo

THOR ABLESTAR DEB

AtivoLEO
NORAD 246·DEBRIS·🇺🇸 United States

Lançado Jun 29, 1961 de Cape Canaveral Space Force Station

Loading…

Próximas Passagens (próximas 24 horas)

TLE

AtualizadoSource: Space-Track

Época: Sep 14, 2026, 04:59 UTC

1 00246U 61015CB  26257.20781400 -.00000020  00000-0  47502-4 0  9994
2 00246  66.8715 336.8855 0059227  68.3336 292.4035 13.86168435636206

Acompanhe THOR ABLESTAR DEB em tempo real com AllMySat

Download on the App Store